timestamp,wind_dir_avg,wind_spd_max_dir,wind_spd_avg,wind_spd_gust,battery_voltage,lat,long
2019-01-03 00:00:00+00:00,326.0,329.0,14.22,18.38,,47.59359,-54.27349
2019-01-03 00:10:00+00:00,328.0,324.0,14.45,17.03,,47.59359,-54.27349
2019-01-03 00:20:00+00:00,328.0,329.0,14.38,17.42,,47.59359,-54.27349
2019-01-03 00:30:00+00:00,323.0,323.0,14.98,18.74,,47.59359,-54.27349
2019-01-03 00:40:00+00:00,326.0,332.0,16.46,22.07,,47.59359,-54.27349
2019-01-03 00:50:00+00:00,325.0,329.0,13.17,15.54,,47.59359,-54.27349
2019-01-03 01:00:00+00:00,326.0,318.0,13.41,15.56,,47.59359,-54.27349
2019-01-03 01:10:00+00:00,322.0,311.0,13.55,16.01,,47.59359,-54.27349
2019-01-03 01:20:00+00:00,323.0,329.0,15.74,19.58,,47.59359,-54.27349
2019-01-03 01:30:00+00:00,323.0,334.0,16.02,23.95,,47.59359,-54.27349
2019-01-03 01:40:00+00:00,325.0,325.0,15.46,20.83,,47.59359,-54.27349
2019-01-03 01:50:00+00:00,326.0,330.0,14.57,18.37,,47.59359,-54.27349
2019-01-03 02:00:00+00:00,329.0,331.0,16.47,23.49,,47.59359,-54.27349
2019-01-03 02:10:00+00:00,327.0,327.0,17.36,20.76,,47.59359,-54.27349
2019-01-03 02:20:00+00:00,328.0,321.0,14.86,18.37,,47.59359,-54.27349
2019-01-03 02:30:00+00:00,329.0,327.0,16.6,19.67,,47.59359,-54.27349
2019-01-03 02:40:00+00:00,326.0,326.0,14.65,19.82,,47.59359,-54.27349
2019-01-03 02:50:00+00:00,328.0,334.0,12.17,14.74,,47.59359,-54.27349
2019-01-03 03:00:00+00:00,337.0,352.0,15.32,20.03,,47.59359,-54.27349
2019-01-03 03:10:00+00:00,342.0,344.0,14.97,17.93,,47.59359,-54.27349
2019-01-03 03:20:00+00:00,346.0,350.0,13.46,16.41,,47.59359,-54.27349
2019-01-03 03:30:00+00:00,342.0,342.0,10.57,13.49,,47.59359,-54.27349
2019-01-03 03:40:00+00:00,340.0,349.0,7.79,9.89,,47.59359,-54.27349
2019-01-03 03:50:00+00:00,342.0,347.0,11.0,15.61,,47.59359,-54.27349
2019-01-03 04:00:00+00:00,342.0,344.0,10.35,12.44,,47.59359,-54.27349
2019-01-03 04:10:00+00:00,333.0,331.0,9.21,10.98,,47.59359,-54.27349
2019-01-03 04:20:00+00:00,326.0,329.0,7.12,10.01,,47.59359,-54.27349
2019-01-03 04:30:00+00:00,325.0,312.0,9.96,15.39,,47.59359,-54.27349
2019-01-03 04:40:00+00:00,328.0,330.0,7.16,10.25,,47.59359,-54.27349
2019-01-03 04:50:00+00:00,330.0,329.0,6.1,8.71,,47.59359,-54.27349
2019-01-03 05:00:00+00:00,325.0,325.0,6.65,9.41,,47.59359,-54.27349
2019-01-03 05:10:00+00:00,341.0,345.0,6.07,8.77,,47.59359,-54.27349
2019-01-03 05:20:00+00:00,320.0,323.0,3.86,7.08,,47.59359,-54.27349
2019-01-03 05:30:00+00:00,321.0,337.0,5.49,9.31,,47.59359,-54.27349
2019-01-03 05:40:00+00:00,329.0,335.0,13.54,19.44,,47.59359,-54.27349
2019-01-03 05:50:00+00:00,331.0,342.0,15.23,19.25,,47.59359,-54.27349
2019-01-03 06:00:00+00:00,328.0,321.0,13.43,16.44,,47.59359,-54.27349
2019-01-03 06:10:00+00:00,325.0,328.0,12.38,15.19,,47.59359,-54.27349
2019-01-03 06:20:00+00:00,327.0,322.0,14.2,16.99,,47.59359,-54.27349
2019-01-03 06:30:00+00:00,320.0,315.0,13.63,16.67,,47.59359,-54.27349
2019-01-03 06:40:00+00:00,315.0,315.0,14.31,16.46,,47.59359,-54.27349
2019-01-03 06:50:00+00:00,320.0,322.0,13.68,16.41,,47.59359,-54.27349
2019-01-03 07:00:00+00:00,324.0,323.0,10.95,15.32,,47.59359,-54.27349
2019-01-03 07:10:00+00:00,328.0,324.0,12.92,15.66,,47.59359,-54.27349
2019-01-03 07:20:00+00:00,330.0,324.0,10.77,12.65,,47.59359,-54.27349
2019-01-03 07:30:00+00:00,335.0,343.0,11.21,13.42,,47.59359,-54.27349
2019-01-03 07:40:00+00:00,331.0,332.0,8.7,10.07,,47.59359,-54.27349
2019-01-03 07:50:00+00:00,328.0,333.0,8.17,13.09,,47.59359,-54.27349
2019-01-03 08:00:00+00:00,322.0,316.0,8.95,11.48,,47.59359,-54.27349
2019-01-03 08:10:00+00:00,328.0,336.0,8.71,10.97,,47.59359,-54.27349
2019-01-03 08:20:00+00:00,321.0,316.0,8.07,10.05,,47.59359,-54.27349
2019-01-03 08:30:00+00:00,326.0,340.0,7.19,9.95,,47.59359,-54.27349
2019-01-03 08:40:00+00:00,326.0,326.0,7.68,9.76,,47.59359,-54.27349
2019-01-03 08:50:00+00:00,333.0,327.0,9.1,12.18,,47.59359,-54.27349
2019-01-03 09:00:00+00:00,339.0,341.0,9.93,11.81,,47.59359,-54.27349
2019-01-03 09:10:00+00:00,318.0,323.0,6.61,7.96,,47.59359,-54.27349
2019-01-03 09:20:00+00:00,318.0,322.0,7.27,9.24,,47.59359,-54.27349
2019-01-03 09:30:00+00:00,324.0,328.0,7.89,10.18,,47.59359,-54.27349
2019-01-03 09:40:00+00:00,321.0,325.0,7.88,9.68,,47.59359,-54.27349
2019-01-03 09:50:00+00:00,321.0,332.0,8.64,10.53,,47.59359,-54.27349
2019-01-03 10:00:00+00:00,317.0,322.0,7.5,9.5,,47.59359,-54.27349
2019-01-03 10:10:00+00:00,324.0,326.0,8.51,10.36,,47.59359,-54.27349
2019-01-03 10:20:00+00:00,321.0,327.0,9.0,10.56,,47.59359,-54.27349
2019-01-03 10:30:00+00:00,328.0,328.0,9.45,11.46,,47.59359,-54.27349
2019-01-03 10:40:00+00:00,327.0,321.0,9.62,12.09,,47.59359,-54.27349
2019-01-03 10:50:00+00:00,321.0,325.0,9.18,10.72,,47.59359,-54.27349
2019-01-03 11:00:00+00:00,321.0,312.0,9.16,10.67,,47.59359,-54.27349
2019-01-03 11:10:00+00:00,322.0,324.0,8.79,10.65,,47.59359,-54.27349
2019-01-03 11:20:00+00:00,326.0,324.0,8.13,9.73,,47.59359,-54.27349
2019-01-03 11:30:00+00:00,325.0,329.0,6.75,9.18,,47.59359,-54.27349
2019-01-03 11:40:00+00:00,322.0,328.0,9.69,11.23,,47.59359,-54.27349
2019-01-03 11:50:00+00:00,327.0,334.0,8.84,10.34,,47.59359,-54.27349
2019-01-03 12:00:00+00:00,323.0,327.0,8.41,10.46,,47.59359,-54.27349
2019-01-03 12:10:00+00:00,328.0,339.0,8.94,11.32,,47.59359,-54.27349
2019-01-03 12:20:00+00:00,327.0,327.0,7.58,10.45,,47.59359,-54.27349
2019-01-03 12:30:00+00:00,327.0,329.0,10.49,12.66,,47.59359,-54.27349
2019-01-03 12:40:00+00:00,334.0,339.0,9.76,12.13,,47.59359,-54.27349
2019-01-03 12:50:00+00:00,327.0,324.0,8.16,10.57,,47.59359,-54.27349
2019-01-03 13:00:00+00:00,330.0,339.0,8.98,11.9,,47.59359,-54.27349
2019-01-03 13:10:00+00:00,325.0,328.0,7.76,9.88,,47.59359,-54.27349
2019-01-03 13:20:00+00:00,329.0,325.0,7.17,9.59,,47.59359,-54.27349
2019-01-03 13:30:00+00:00,298.0,313.0,3.51,5.15,,47.59359,-54.27349
2019-01-03 13:40:00+00:00,299.0,280.0,3.27,4.4,,47.59359,-54.27349
2019-01-03 13:50:00+00:00,341.0,344.0,3.23,5.88,,47.59359,-54.27349
2019-01-03 14:00:00+00:00,331.0,310.0,1.95,2.93,,47.59359,-54.27349
2019-01-03 14:10:00+00:00,329.0,322.0,3.42,5.2,,47.59359,-54.27349
2019-01-03 14:20:00+00:00,332.0,347.0,5.59,7.86,,47.59359,-54.27349
2019-01-03 14:30:00+00:00,341.0,343.0,8.29,10.77,,47.59359,-54.27349
2019-01-03 14:40:00+00:00,321.0,326.0,5.39,7.12,,47.59359,-54.27349
2019-01-03 14:50:00+00:00,316.0,330.0,4.95,6.67,,47.59359,-54.27349
2019-01-03 15:00:00+00:00,331.0,330.0,5.31,7.17,,47.59359,-54.27349
2019-01-03 15:10:00+00:00,331.0,329.0,5.32,6.98,,47.59359,-54.27349
2019-01-03 15:20:00+00:00,322.0,324.0,4.73,6.63,,47.59359,-54.27349
2019-01-03 15:30:00+00:00,324.0,334.0,6.24,7.97,,47.59359,-54.27349
2019-01-03 15:40:00+00:00,317.0,325.0,5.55,6.55,,47.59359,-54.27349
2019-01-03 15:50:00+00:00,320.0,321.0,5.9,7.61,,47.59359,-54.27349
2019-01-03 16:00:00+00:00,327.0,322.0,6.5,8.12,,47.59359,-54.27349
2019-01-03 16:10:00+00:00,327.0,334.0,5.97,7.41,,47.59359,-54.27349
2019-01-03 16:20:00+00:00,325.0,338.0,5.61,6.6,,47.59359,-54.27349
2019-01-03 16:30:00+00:00,321.0,320.0,5.34,6.77,,47.59359,-54.27349
2019-01-03 16:40:00+00:00,314.0,311.0,6.1,7.22,,47.59359,-54.27349
2019-01-03 16:50:00+00:00,320.0,324.0,5.93,7.66,,47.59359,-54.27349
2019-01-03 17:00:00+00:00,309.0,315.0,5.24,6.29,,47.59359,-54.27349
2019-01-03 17:10:00+00:00,290.0,297.0,3.93,5.54,,47.59359,-54.27349
2019-01-03 17:20:00+00:00,324.0,328.0,7.16,8.34,,47.59359,-54.27349
2019-01-03 17:30:00+00:00,332.0,339.0,3.66,5.41,,47.59359,-54.27349
2019-01-03 17:40:00+00:00,310.0,304.0,5.5,7.81,,47.59359,-54.27349
2019-01-03 17:50:00+00:00,325.0,322.0,7.27,8.68,,47.59359,-54.27349
2019-01-03 18:00:00+00:00,331.0,336.0,4.56,5.51,,47.59359,-54.27349
2019-01-03 18:10:00+00:00,316.0,309.0,5.33,6.04,,47.59359,-54.27349
2019-01-03 18:20:00+00:00,320.0,329.0,4.55,5.82,,47.59359,-54.27349
2019-01-03 18:30:00+00:00,327.0,334.0,3.9,5.32,,47.59359,-54.27349
2019-01-03 18:40:00+00:00,314.0,311.0,4.2,5.41,,47.59359,-54.27349
2019-01-03 18:50:00+00:00,304.0,310.0,3.39,5.02,,47.59359,-54.27349
2019-01-03 19:00:00+00:00,322.0,318.0,2.75,3.77,,47.59359,-54.27349
2019-01-03 19:10:00+00:00,279.0,286.0,4.69,5.81,,47.59359,-54.27349
2019-01-03 19:20:00+00:00,298.0,289.0,2.84,5.54,,47.59359,-54.27349
2019-01-03 19:30:00+00:00,307.0,306.0,3.63,5.49,,47.59359,-54.27349
2019-01-03 19:40:00+00:00,310.0,301.0,3.71,5.13,,47.59359,-54.27349
2019-01-03 19:50:00+00:00,313.0,310.0,3.9,5.35,,47.59359,-54.27349
2019-01-03 20:00:00+00:00,325.0,307.0,3.26,4.9,,47.59359,-54.27349
2019-01-03 20:10:00+00:00,306.0,301.0,4.19,5.22,,47.59359,-54.27349
2019-01-03 20:20:00+00:00,321.0,322.0,5.81,6.66,,47.59359,-54.27349
2019-01-03 20:30:00+00:00,328.0,323.0,3.21,3.86,,47.59359,-54.27349
2019-01-03 20:40:00+00:00,305.0,309.0,4.57,5.57,,47.59359,-54.27349
2019-01-03 20:50:00+00:00,316.0,312.0,3.24,4.18,,47.59359,-54.27349
2019-01-03 21:00:00+00:00,310.0,321.0,4.4,5.51,,47.59359,-54.27349
2019-01-03 21:10:00+00:00,311.0,308.0,4.08,4.97,,47.59359,-54.27349
2019-01-03 21:20:00+00:00,313.0,313.0,4.16,5.16,,47.59359,-54.27349
2019-01-03 21:30:00+00:00,311.0,317.0,4.41,4.88,,47.59359,-54.27349
2019-01-03 21:40:00+00:00,298.0,300.0,3.16,4.06,,47.59359,-54.27349
2019-01-03 21:50:00+00:00,319.0,320.0,4.12,4.79,,47.59359,-54.27349
2019-01-03 22:00:00+00:00,319.0,316.0,4.77,5.37,,47.59359,-54.27349
2019-01-03 22:10:00+00:00,327.0,322.0,4.93,5.6,,47.59359,-54.27349
2019-01-03 22:20:00+00:00,338.0,332.0,4.54,5.12,,47.59359,-54.27349
2019-01-03 22:30:00+00:00,352.0,352.0,5.16,5.73,,47.59359,-54.27349
2019-01-03 22:40:00+00:00,356.0,351.0,4.83,5.49,,47.59359,-54.27349
2019-01-03 22:50:00+00:00,349.0,343.0,3.82,5.7,,47.59359,-54.27349
2019-01-03 23:00:00+00:00,347.0,346.0,5.22,5.88,,47.59359,-54.27349
2019-01-03 23:10:00+00:00,0.0,7.0,4.27,5.26,,47.59359,-54.27349
2019-01-03 23:20:00+00:00,357.0,357.0,4.72,5.55,,47.59359,-54.27349
2019-01-03 23:30:00+00:00,1.0,5.0,4.89,5.7,,47.59359,-54.27349
2019-01-03 23:40:00+00:00,8.0,8.0,4.42,5.34,,47.59359,-54.27349
2019-01-03 23:50:00+00:00,12.0,3.0,3.58,4.36,,47.59359,-54.27349
